Location: Brienzwiler
(46.7508°N, 8.1014°E)
Time: 08:04:36
(UTC+00:00)

Cosmos 2056 Rocket - Pass Details

Date: 05 July 2020
Orbit: 741 x 801 km, 74.0° (Epoch: 05 August)

Event Time Altitude Azimuth Distance (km) Brightness Sun altitude
Rises 22:58:30 0° 334° (NNW) 3,305 8.1 -20.2°
Reaches altitude 10° 23:00:57 10° 330° (NNW) 2,377 7.0 -20.2°
Maximum altitude 23:06:12 54° 254° (WSW) 974 3.9 -20.3°
Enters shadow 23:07:57 38° 202° (SSW) 1,210 4.1 -20.4°
